Tracking 20710 objects as of 30-May-2020
HD Live streaming from Space Station
objects crossing your sky now

IRIDIUM 47 DEB

Track IRIDIUM 47 DEB now!
10-day predictions


NORAD ID: 40254
Int'l Code: 1997-082P
Perigee: 759.0 km
Apogee: 1,047.6 km
Inclination: 86.0 °
Period: 102.9 minutes
Semi major axis: 7274 km
RCS: Unknown
Launch date: December 20, 1997
Source: United States (US)
Launch site: AIR FORCE WESTERN TEST RANGE (AFWTR)

Note: This is SATELLITE DEBRIS
aabbcc
Your satellite tracking list
Your tracking list is empty




NASA's NSSDC Master Catalog

Two Line Element Set (TLE):
1 40254U 97082P   20150.69553393 +.00001491 +00000-0 +85775-3 0  9992
2 40254 086.0258 134.7638 0198394 318.4119 040.2107 13.99321682289095
Source of the keplerian elements: AFSPC